Location: Austin
(30.3000°N, 97.7500°W)
Time: 11:16:40
(UTC-05:00)

Cosmos 1725 Rocket - Pass Details

Date: 05 September 2024
Orbit: 960 x 991 km, 82.9° (Epoch: 11 September)

Event Time Altitude Azimuth Distance (km) Brightness Sun altitude
Rises 20:02:47 0° 167° (SSE) 3,644 6.8 -4.0°
Reaches altitude 10° 20:05:23 10° 162° (SSE) 2,696 6.1 -4.5°
Maximum altitude 20:11:13 46° 91° (E) 1,273 4.3 -5.8°
Drops below altitude 10° 20:17:02 10° 20° (NNE) 2,698 6.2 -7.0°
Sets 20:19:38 0° 14° (NNE) 3,646 7.0 -7.5°
